Location: Asheville, NC
(35.6000°N, 82.5500°W)
Time: 18:41:40
(UTC-05:00)

Envisat - Pass Details

Date: 14 February 2018
Orbit: 764 x 766 km, 98.2° (Epoch: 17 February)

Event Time Altitude Azimuth Distance (km) Brightness Sun altitude
Exits shadow 21:33:09 - 232° (SW) 2,639 6.1 -41.4°
Reaches altitude 10° 21:35:08 10° 252° (WSW) 2,295 5.9 -41.8°
Maximum altitude 21:36:39 11° 269° (W) 2,210 5.9 -42.1°
Drops below altitude 10° 21:38:11 10° 287° (WNW) 2,299 6.1 -42.4°
Sets 21:42:24 0° 321° (NW) 3,232 6.8 -43.2°
